This is the latest recevied weather packets stored in our database for station/object KI5NXU. If no packets are shown the sender has not sent any weather packets the latest 10 day(s).
| Time | Temp. | Humidity | Pressure | Rain* | Wind** | Luminosity | Snow |
|---|---|---|---|---|---|---|---|
| 1777934329 | 29.44° C | 56% | 1004.9 hPa | 0 mm | - | 200 W/m² | - |
| 1777934025 | 30° C | 55% | 1004.8 hPa | 0 mm | - | 233 W/m² | - |
| 1777933721 | 30° C | 55% | 1004.3 hPa | 0 mm | - | 275 W/m² | - |
| 1777933418 | 29.44° C | 55% | 1004.8 hPa | 0 mm | - | 293 W/m² | - |
| 1777933117 | 29.44° C | 56% | 1004.6 hPa | 0 mm | - | 270 W/m² | - |
| 1777932813 | 29.44° C | 56% | 1004.7 hPa | 0 mm | - | 207 W/m² | - |
| 1777932510 | 30° C | 54% | 1004.6 hPa | 0 mm | - | 275 W/m² | - |
| 1777932207 | 30.56° C | 54% | 1005 hPa | 0 mm | - | 263 W/m² | - |
| 1777931904 | 30° C | 55% | 1005.1 hPa | 0 mm | - | 418 W/m² | - |
| 1777931601 | 30° C | 53% | 1004.9 hPa | 0 mm | - | 253 W/m² | - |
| 1777931296 | 30.56° C | 52% | 1005 hPa | 0 mm | - | 396 W/m² | - |
| 1777930994 | 30.56° C | 52% | 1005 hPa | 0 mm | - | 443 W/m² | - |
| 1777930690 | 31.11° C | 52% | 1005.1 hPa | 0 mm | - | 442 W/m² | - |
| 1777930386 | 30.56° C | 52% | 1005 hPa | 0 mm | - | 516 W/m² | - |
| 1777930084 | 30.56° C | 52% | 1005.3 hPa | 0 mm | - | 469 W/m² | - |
| 1777929780 | 30.56° C | 53% | 1005.4 hPa | 0 mm | - | 356 W/m² | - |
| 1777929478 | 29.44° C | 54% | 1005.5 hPa | 0 mm | - | 432 W/m² | - |
| 1777929173 | 30° C | 54% | 1005.5 hPa | 0 mm | - | 356 W/m² | - |
| 1777928871 | 30° C | 52% | 1005.6 hPa | 0 mm | - | 520 W/m² | - |
| 1777928568 | 30° C | 53% | 1005.5 hPa | 0 mm | - | 451 W/m² | - |
| 1777928265 | 30° C | 53% | 1005.9 hPa | 0 mm | - | 406 W/m² | - |
| 1777927963 | 30° C | 54% | 1006 hPa | 0 mm | - | 316 W/m² | - |
| 1777927661 | 30° C | 52% | 1006.1 hPa | 0 mm | - | 440 W/m² | - |
| 1777927359 | 30° C | 54% | 1006.2 hPa | 0 mm | - | 311 W/m² | - |
| 1777927058 | 30.56° C | 53% | 1006 hPa | 0 mm | - | 523 W/m² | - |
* Rain latest hour (hover to see other rain measurements)
** Current wind speed in m/s (hover to see current wind gust speed)